Location: Oshawa
(43.9000°N, 78.8670°W)
Time: 21:07:10
(UTC-05:00)

Transit 2A Rocket - Visible Passes

Search period start: 22 November 2014 00:00
Search period end: 02 December 2014 00:00
Orbit: 589 x 919 km, 66.7° (Epoch: 21 November)

Date Brightness Start Highest point End Pass type
(mag) Time Alt. Az. Time Alt. Az. Time Alt. Az.
22 Nov 5.2 18:46:48 10° NNW 18:52:31 67° NE 18:54:22 44° ESE visible
22 Nov 7.3 20:30:23 10° WNW 20:34:25 22° WSW 20:34:25 22° WSW visible
23 Nov 5.6 18:05:06 10° NNW 18:10:33 44° NE 18:15:17 15° ESE visible
23 Nov 6.6 19:47:55 10° NW 19:53:10 36° WSW 19:55:22 27° SSW visible
24 Nov 6.1 17:23:30 10° NNW 17:28:28 30° NE 17:33:41 10° ESE visible
24 Nov 5.8 19:05:48 10° NW 19:11:28 57° WSW 19:17:19 10° SSE visible
25 Nov 5.3 18:23:52 10° NNW 18:29:40 89° WSW 18:35:45 10° SSE visible
25 Nov 7.9 20:08:23 10° WNW 20:11:39 15° WSW 20:14:59 10° SW visible
26 Nov 5.3 17:42:04 10° NNW 17:47:46 60° NE 17:53:46 10° SE visible
26 Nov 7.4 19:25:25 10° NW 19:30:07 25° WSW 19:34:57 10° SSW visible
27 Nov 6.6 18:43:04 10° NW 18:48:29 40° WSW 18:54:06 10° S visible
28 Nov 5.8 18:00:59 10° NW 18:06:45 64° WSW 18:12:46 10° SSE visible
29 Nov 5.3 17:19:05 10° NNW 17:24:55 83° ENE 17:31:01 10° SSE visible
29 Nov 8.1 19:03:14 10° WNW 19:06:59 18° WSW 19:10:50 10° SW visible
30 Nov 7.4 18:20:29 10° NW 18:25:26 29° WSW 18:30:31 10° SSW visible
01 Dec 6.6 17:38:12 10° NW 17:43:46 45° WSW 17:49:32 10° S visible
